| time (UTC) | temp F | wind direction | speed MPH | gust MPH | rain 1hr in | rain 24hr in | rain mn in | humidity % | barometer mb |
| 20260905175048 | 72 | 226 | 0.0 | 1.0 | 0.00 | 0.00 | 0.00 | 80 | 997.1 |
| 20260905174528 | 72 | 130 | 0.0 | 1.0 | 0.00 | 0.00 | 0.00 | 83 | 997.1 |
| 20260905174038 | 72 | 129 | 0.0 | 0.0 | 0.00 | 0.00 | 0.00 | 82 | 997.1 |
| 20260905173529 | 72 | 129 | 0.0 | 1.0 | 0.00 | 0.00 | 0.00 | 80 | 997.1 |
| 20260905173037 | 72 | 129 | 0.0 | 1.0 | 0.00 | 0.00 | 0.00 | 78 | 997.1 |
| 20260905172547 | 72 | 137 | 0.0 | 3.0 | 0.00 | 0.00 | 0.00 | 78 | 997.1 |
| 20260905172026 | 73 | 112 | 0.0 | 4.0 | 0.00 | 0.00 | 0.00 | 79 | 997.1 |
| 20260905171536 | 73 | 255 | 0.0 | 4.0 | 0.00 | 0.00 | 0.00 | 78 | 997.2 |
| 20260905171044 | 73 | 127 | 0.0 | 3.0 | 0.00 | 0.00 | 0.00 | 79 | 997.2 |
| 20260905170553 | 73 | 291 | 0.0 | 3.0 | 0.00 | 0.00 | 0.00 | 77 | 997.1 |
| 20260905170059 | 73 | 152 | 1.0 | 4.0 | 0.00 | 0.00 | 0.00 | 77 | 997.1 |
| 20260905165546 | 73 | 290 | 1.0 | 4.0 | 0.00 | 0.00 | 0.00 | 76 | 997.1 |
| 20260905165021 | 73 | 131 | 1.0 | 4.0 | 0.00 | 0.00 | 0.00 | 77 | 997.1 |
| 20260905164531 | 73 | 260 | 1.0 | 4.0 | 0.00 | 0.00 | 0.00 | 75 | 997.1 |
| 20260905164041 | 73 | 330 | 0.0 | 4.0 | 0.00 | 0.00 | 0.00 | 79 | 997.1 |
| 20260905163524 | 72 | 193 | 1.0 | 3.0 | 0.00 | 0.00 | 0.00 | 79 | 997.2 |
| 20260905163030 | 72 | 58 | 1.0 | 3.0 | 0.00 | 0.00 | 0.00 | 80 | 997.2 |
| 20260905162538 | 72 | 164 | 0.0 | 3.0 | 0.00 | 0.00 | 0.00 | 79 | 997.3 |
| 20260905162047 | 72 | 11 | 0.0 | 6.0 | 0.00 | 0.00 | 0.00 | 78 | 997.4 |
| 20260905161528 | 73 | 111 | 1.0 | 6.0 | 0.00 | 0.00 | 0.00 | 76 | 997.4 |
| 20260905161037 | 73 | 230 | 0.0 | 3.0 | 0.00 | 0.00 | 0.00 | 76 | 997.4 |
| 20260905160549 | 73 | 124 | 0.0 | 2.0 | 0.00 | 0.00 | 0.00 | 76 | 997.4 |
| 20260905160026 | 74 | 105 | 0.0 | 6.0 | 0.00 | 0.00 | 0.00 | 76 | 997.5 |
| 20260905155536 | 74 | 231 | 1.0 | 3.0 | 0.00 | 0.00 | 0.00 | 75 | 997.6 |
| 20260905155044 | 73 | 18 | 1.0 | 3.0 | 0.00 | 0.00 | 0.00 | 80 | 997.6 |
| 20260905154523 | 72 | 264 | 0.0 | 4.0 | 0.00 | 0.00 | 0.00 | 78 | 997.6 |
| 20260905154032 | 72 | 88 | 1.0 | 4.0 | 0.00 | 0.00 | 0.00 | 79 | 997.6 |
| 20260905153540 | 72 | 323 | 0.0 | 4.0 | 0.00 | 0.00 | 0.00 | 80 | 997.5 |
| 20260905153048 | 72 | 89 | 1.0 | 2.0 | 0.00 | 0.00 | 0.00 | 79 | 997.5 |
| 20260905152540 | 71 | 224 | 0.0 | 3.0 | 0.00 | 0.00 | 0.00 | 80 | 997.6 |
| 20260905152048 | 71 | 267 | 1.0 | 3.0 | 0.00 | 0.00 | 0.00 | 81 | 997.6 |
| 20260905151556 | 70 | 135 | 1.0 | 5.0 | 0.00 | 0.00 | 0.00 | 80 | 997.6 |
| 20260905151044 | 70 | 89 | 1.0 | 5.0 | 0.00 | 0.00 | 0.00 | 81 | 997.8 |
| 20260905150553 | 70 | 111 | 1.0 | 3.0 | 0.00 | 0.00 | 0.00 | 82 | 997.7 |
| 20260905150021 | 70 | 149 | 0.0 | 1.0 | 0.00 | 0.00 | 0.00 | 84 | 997.7 |
| 20260905145548 | 70 | 122 | 0.0 | 2.0 | 0.00 | 0.00 | 0.00 | 83 | 997.7 |
| 20260905145028 | 70 | 146 | 0.0 | 2.0 | 0.00 | 0.00 | 0.00 | 82 | 997.7 |
| 20260905144538 | 69 | 102 | 0.0 | 1.0 | 0.00 | 0.00 | 0.00 | 84 | 997.7 |
| 20260905144048 | 69 | 102 | 0.0 | 1.0 | 0.00 | 0.00 | 0.00 | 86 | 997.6 |
| 20260905143552 | 68 | 102 | 0.0 | 1.0 | 0.00 | 0.00 | 0.00 | 85 | 997.7 |
| 20260905143029 | 68 | 98 | 0.0 | 2.0 | 0.00 | 0.00 | 0.00 | 86 | 997.6 |
| 20260905142535 | 68 | 124 | 0.0 | 2.0 | 0.00 | 0.00 | 0.00 | 86 | 997.7 |
| 20260905142045 | 68 | 269 | 0.0 | 2.0 | 0.00 | 0.00 | 0.00 | 87 | 997.8 |
| 20260905141524 | 68 | 91 | 0.0 | 1.0 | 0.00 | 0.00 | 0.00 | 86 | 997.8 |
| 20260905141034 | 68 | 91 | 0.0 | 1.0 | 0.00 | 0.00 | 0.00 | 86 | 997.7 |
| 20260905140546 | 68 | 5 | 0.0 | 2.0 | 0.00 | 0.00 | 0.00 | 88 | 997.8 |
| 20260905140032 | 68 | 300 | 0.0 | 2.0 | 0.00 | 0.00 | 0.00 | 88 | 997.8 |
| 20260905135526 | 68 | 235 | 0.0 | 1.0 | 0.00 | 0.00 | 0.00 | 88 | 997.8 |
| 20260905135035 | 67 | 236 | 0.0 | 1.0 | 0.00 | 0.00 | 0.00 | 88 | 997.7 |
| 20260905134544 | 67 | 116 | 0.0 | 3.0 | 0.00 | 0.00 | 0.00 | 89 | 997.7 |
| 20260905134024 | 67 | 137 | 0.0 | 3.0 | 0.00 | 0.00 | 0.00 | 91 | 997.7 |
| 20260905133536 | 67 | 249 | 0.0 | 2.0 | 0.00 | 0.00 | 0.00 | 92 | 997.7 |
| 20260905133045 | 66 | 249 | 0.0 | 2.0 | 0.00 | 0.00 | 0.00 | 92 | 997.7 |
| 20260905132525 | 66 | 235 | 0.0 | 2.0 | 0.00 | 0.00 | 0.00 | 92 | 997.8 |
| 20260905132029 | 65 | 249 | 0.0 | 1.0 | 0.00 | 0.00 | 0.00 | 94 | 997.6 |
| 20260905131536 | 65 | 250 | 0.0 | 2.0 | 0.00 | 0.00 | 0.00 | 95 | 997.6 |
| 20260905131026 | 65 | 188 | 0.0 | 1.0 | 0.00 | 0.00 | 0.00 | 96 | 997.6 |
| 20260905130528 | 64 | 148 | 0.0 | 1.0 | 0.00 | 0.00 | 0.00 | 97 | 997.6 |
| 20260905130036 | 64 | 143 | 0.0 | 1.0 | 0.00 | 0.00 | 0.00 | 98 | 997.5 |
| 20260905125543 | 63 | 219 | 0.0 | 1.0 | 0.00 | 0.00 | 0.00 | 98 | 997.5 |
| 20260905125030 | 63 | 219 | 0.0 | 1.0 | 0.00 | 0.00 | 0.00 | 99 | 997.5 |
| 20260905124531 | 62 | 230 | 0.0 | 1.0 | 0.00 | 0.00 | 0.00 | 99 | 997.4 |
| 20260905124020 | 62 | 133 | 0.0 | 1.0 | 0.00 | 0.00 | 0.00 | 99 | 997.4 |
| 20260905123528 | 61 | 133 | 0.0 | 1.0 | 0.00 | 0.00 | 0.00 | 99 | 997.5 |
| 20260905123026 | 61 | 133 | 0.0 | 1.0 | 0.00 | 0.00 | 0.00 | 99 | 997.4 |
| 20260905122536 | 61 | 263 | 0.0 | 1.0 | 0.00 | 0.00 | 0.00 | 99 | 997.4 |
| 20260905122022 | 61 | 251 | 0.0 | 1.0 | 0.00 | 0.00 | 0.00 | 99 | 997.3 |
| 20260905121547 | 61 | 251 | 0.0 | 1.0 | 0.00 | 0.00 | 0.00 | 99 | 997.3 |
| 20260905121048 | 60 | 130 | 0.0 | 1.0 | 0.00 | 0.00 | 0.00 | 99 | 997.3 |
| 20260905120531 | 60 | 208 | 0.0 | 1.0 | 0.00 | 0.00 | 0.00 | 99 | 997.2 |
| 20260905120038 | 60 | 237 | 0.0 | 1.0 | 0.00 | 0.00 | 0.00 | 99 | 997.2 |
| 20260905115549 | 59 | 237 | 0.0 | 1.0 | 0.00 | 0.00 | 0.00 | 99 | 997.2 |
| 20260905115046 | 59 | 97 | 0.0 | 0.0 | 0.00 | 0.00 | 0.00 | 99 | 997.1 |
| 20260905114534 | 59 | 97 | 0.0 | 0.0 | 0.00 | 0.00 | 0.00 | 99 | 997.0 |
| 20260905114044 | 59 | 96 | 0.0 | 0.0 | 0.00 | 0.00 | 0.00 | 99 | 996.9 |
| 20260905113556 | 59 | 96 | 0.0 | 1.0 | 0.00 | 0.00 | 0.00 | 99 | 996.9 |
| 20260905113033 | 59 | 96 | 0.0 | 1.0 | 0.00 | 0.00 | 0.00 | 99 | 996.8 |
| 20260905112522 | 59 | 96 | 0.0 | 0.0 | 0.00 | 0.00 | 0.00 | 99 | 996.8 |
| 20260905112022 | 59 | 96 | 0.0 | 0.0 | 0.00 | 0.00 | 0.00 | 99 | 996.8 |
| 20260905111601 | 59 | 96 | 0.0 | 0.0 | 0.00 | 0.00 | 0.00 | 99 | 996.8 |
| 20260905111106 | 59 | 96 | 0.0 | 0.0 | 0.00 | 0.00 | 0.00 | 99 | 996.8 |
| 20260905110525 | 59 | 96 | 0.0 | 0.0 | 0.00 | 0.00 | 0.00 | 99 | 996.7 |
| 20260905110033 | 59 | 96 | 0.0 | 0.0 | 0.00 | 0.00 | 0.00 | 98 | 996.7 |
| 20260905105529 | 59 | 96 | 0.0 | 0.0 | 0.00 | 0.00 | 0.00 | 99 | 996.7 |
| 20260905105039 | 59 | 96 | 0.0 | 1.0 | 0.00 | 0.00 | 0.00 | 98 | 996.5 |
| 20260905104528 | 59 | 96 | 0.0 | 1.0 | 0.00 | 0.00 | 0.00 | 99 | 996.4 |
| 20260905104026 | 59 | 96 | 0.0 | 0.0 | 0.00 | 0.00 | 0.00 | 99 | 996.4 |
| 20260905103537 | 59 | 65 | 0.0 | 1.0 | 0.00 | 0.00 | 0.00 | 99 | 996.4 |
| 20260905103025 | 59 | 65 | 0.0 | 1.0 | 0.00 | 0.00 | 0.00 | 99 | 996.3 |
| 20260905102525 | 59 | 65 | 0.0 | 2.0 | 0.00 | 0.00 | 0.00 | 99 | 996.3 |
| 20260905102035 | 59 | 107 | 0.0 | 2.0 | 0.00 | 0.00 | 0.00 | 99 | 996.2 |
| 20260905101545 | 59 | 194 | 0.0 | 0.0 | 0.00 | 0.00 | 0.00 | 99 | 996.2 |
| 20260905101053 | 59 | 194 | 0.0 | 0.0 | 0.00 | 0.00 | 0.00 | 99 | 996.3 |
| 20260905100606 | 59 | 233 | 0.0 | 0.0 | 0.00 | 0.00 | 0.00 | 98 | 996.3 |
| 20260905100024 | 59 | 233 | 0.0 | 0.0 | 0.00 | 0.00 | 0.00 | 98 | 996.2 |
| 20260905095529 | 59 | 233 | 0.0 | 1.0 | 0.00 | 0.00 | 0.00 | 98 | 996.2 |
| 20260905095026 | 59 | 233 | 0.0 | 1.0 | 0.00 | 0.00 | 0.00 | 98 | 996.2 |
| 20260905094535 | 59 | 233 | 0.0 | 1.0 | 0.00 | 0.00 | 0.00 | 99 | 996.1 |
| 20260905094024 | 59 | 235 | 0.0 | 1.0 | 0.00 | 0.00 | 0.00 | 99 | 996.1 |
| 20260905093524 | 59 | 235 | 0.0 | 1.0 | 0.00 | 0.00 | 0.00 | 99 | 996.0 |
| 20260905093032 | 59 | 235 | 0.0 | 1.0 | 0.00 | 0.00 | 0.00 | 99 | 995.9 |
| 20260905092523 | 59 | 235 | 0.0 | 0.0 | 0.00 | 0.00 | 0.00 | 99 | 995.9 |
| 20260905092051 | 59 | 235 | 0.0 | 3.0 | 0.00 | 0.00 | 0.00 | 99 | 995.9 |
| 20260905091559 | 59 | 101 | 0.0 | 3.0 | 0.00 | 0.00 | 0.00 | 99 | 995.8 |
| 20260905091048 | 58 | 131 | 0.0 | 0.0 | 0.00 | 0.00 | 0.00 | 99 | 995.7 |
| 20260905090526 | 58 | 149 | 0.0 | 0.0 | 0.00 | 0.00 | 0.00 | 99 | 995.7 |
| 20260905090053 | 57 | 149 | 0.0 | 0.0 | 0.00 | 0.00 | 0.00 | 99 | 995.8 |
| 20260905085558 | 57 | 153 | 0.0 | 0.0 | 0.00 | 0.00 | 0.00 | 98 | 995.8 |
| 20260905085026 | 56 | 153 | 0.0 | 0.0 | 0.00 | 0.00 | 0.00 | 98 | 995.7 |
| 20260905084536 | 56 | 122 | 0.0 | 0.0 | 0.00 | 0.00 | 0.00 | 98 | 995.7 |
| 20260905084036 | 56 | 122 | 0.0 | 0.0 | 0.00 | 0.00 | 0.00 | 98 | 995.7 |
| 20260905083528 | 56 | 122 | 0.0 | 0.0 | 0.00 | 0.00 | 0.00 | 98 | 995.7 |
| 20260905083038 | 57 | 122 | 0.0 | 0.0 | 0.00 | 0.00 | 0.00 | 98 | 995.7 |
| 20260905082537 | 57 | 122 | 0.0 | 0.0 | 0.00 | 0.00 | 0.00 | 98 | 995.7 |
| 20260905082026 | 57 | 122 | 0.0 | 0.0 | 0.00 | 0.00 | 0.00 | 97 | 995.8 |
| 20260905081526 | 57 | 122 | 0.0 | 0.0 | 0.00 | 0.00 | 0.00 | 97 | 995.8 |
| 20260905081036 | 57 | 122 | 0.0 | 0.0 | 0.00 | 0.00 | 0.00 | 97 | 995.8 |
| 20260905080528 | 57 | 122 | 0.0 | 0.0 | 0.00 | 0.00 | 0.00 | 97 | 995.9 |
| 20260905080031 | 57 | 122 | 0.0 | 0.0 | 0.00 | 0.00 | 0.00 | 97 | 995.8 |
| 20260905075531 | 58 | 122 | 0.0 | 0.0 | 0.00 | 0.00 | 0.00 | 97 | 995.8 |
| 20260905075020 | 58 | 122 | 0.0 | 0.0 | 0.00 | 0.00 | 0.00 | 97 | 995.9 |
| 20260905074531 | 58 | 122 | 0.0 | 0.0 | 0.00 | 0.00 | 0.00 | 97 | 995.9 |
| 20260905074031 | 58 | 122 | 0.0 | 0.0 | 0.00 | 0.00 | 0.00 | 97 | 995.9 |
| 20260905073523 | 58 | 122 | 0.0 | 0.0 | 0.00 | 0.00 | 0.00 | 96 | 995.9 |
| 20260905073047 | 58 | 122 | 0.0 | 0.0 | 0.00 | 0.00 | 0.00 | 96 | 995.9 |
| 20260905072527 | 59 | 122 | 0.0 | 0.0 | 0.00 | 0.00 | 0.00 | 96 | 995.9 |
| 20260905072037 | 59 | 122 | 0.0 | 0.0 | 0.00 | 0.00 | 0.00 | 96 | 996.0 |
| 20260905071547 | 59 | 122 | 0.0 | 0.0 | 0.00 | 0.00 | 0.00 | 96 | 996.0 |
| 20260905071028 | 59 | 122 | 0.0 | 0.0 | 0.00 | 0.00 | 0.00 | 96 | 996.0 |
| 20260905070539 | 59 | 122 | 0.0 | 0.0 | 0.00 | 0.00 | 0.00 | 95 | 996.1 |
| 20260905070046 | 60 | 122 | 0.0 | 0.0 | 0.00 | 0.00 | 0.00 | 95 | 996.1 |
| 20260905065545 | 60 | 122 | 0.0 | 0.0 | 0.00 | 0.00 | 0.00 | 95 | 996.1 |
| 20260905065034 | 60 | 122 | 0.0 | 0.0 | 0.00 | 0.00 | 0.00 | 95 | 996.2 |
| 20260905064545 | 60 | 122 | 0.0 | 0.0 | 0.00 | 0.00 | 0.00 | 95 | 996.2 |
| 20260905064025 | 61 | 122 | 0.0 | 0.0 | 0.00 | 0.00 | 0.00 | 95 | 996.2 |
| 20260905063535 | 61 | 118 | 0.0 | 0.0 | 0.00 | 0.00 | 0.00 | 94 | 996.1 |
| 20260905063043 | 61 | 118 | 0.0 | 0.0 | 0.00 | 0.00 | 0.00 | 94 | 996.1 |
| 20260905062520 | 61 | 118 | 0.0 | 0.0 | 0.00 | 0.00 | 0.00 | 94 | 996.1 |
| 20260905062030 | 62 | 118 | 0.0 | 0.0 | 0.00 | 0.00 | 0.00 | 94 | 996.3 |
| 20260905061539 | 62 | 118 | 0.0 | 0.0 | 0.00 | 0.00 | 0.00 | 94 | 996.2 |
| 20260905061019 | 62 | 118 | 0.0 | 0.0 | 0.00 | 0.00 | 0.00 | 94 | 996.2 |
| 20260905060527 | 62 | 118 | 0.0 | 0.0 | 0.00 | 0.00 | 0.00 | 94 | 996.2 |
| 20260905060025 | 62 | 118 | 0.0 | 0.0 | 0.00 | 0.00 | 0.00 | 95 | 996.3 |
| 20260905055535 | 62 | 118 | 0.0 | 0.0 | 0.00 | 0.00 | 0.00 | 95 | 996.3 |
| 20260905055024 | 62 | 252 | 0.0 | 0.0 | 0.00 | 0.00 | 0.00 | 95 | 996.2 |
| 20260905054525 | 62 | 252 | 0.0 | 0.0 | 0.00 | 0.00 | 0.00 | 95 | 996.1 |
| 20260905054034 | 61 | 252 | 0.0 | 0.0 | 0.00 | 0.00 | 0.00 | 95 | 996.1 |
| 20260905053546 | 61 | 252 | 0.0 | 0.0 | 0.00 | 0.00 | 0.00 | 95 | 996.2 |
| 20260905053030 | 61 | 252 | 0.0 | 0.0 | 0.00 | 0.00 | 0.00 | 95 | 996.2 |
| 20260905052531 | 61 | 259 | 0.0 | 0.0 | 0.00 | 0.00 | 0.00 | 95 | 996.2 |
| 20260905052020 | 61 | 258 | 0.0 | 0.0 | 0.00 | 0.00 | 0.00 | 95 | 996.2 |
| 20260905051520 | 61 | 259 | 0.0 | 0.0 | 0.00 | 0.00 | 0.00 | 94 | 996.3 |
| 20260905051030 | 61 | 259 | 0.0 | 0.0 | 0.00 | 0.00 | 0.00 | 94 | 996.4 |
| 20260905050522 | 62 | 258 | 0.0 | 0.0 | 0.00 | 0.00 | 0.00 | 94 | 996.4 |
| 20260905050021 | 62 | 259 | 0.0 | 0.0 | 0.00 | 0.00 | 0.00 | 94 | 996.4 |
| 20260905045531 | 62 | 259 | 0.0 | 0.0 | 0.00 | 0.00 | 0.00 | 94 | 996.3 |
| 20260905045020 | 62 | 259 | 0.0 | 0.0 | 0.00 | 0.00 | 0.00 | 94 | 996.4 |
| 20260905044520 | 62 | 258 | 0.0 | 0.0 | 0.00 | 0.00 | 0.00 | 94 | 996.4 |
| 20260905044026 | 63 | 259 | 0.0 | 0.0 | 0.00 | 0.00 | 0.00 | 93 | 996.3 |
| 20260905043538 | 63 | 258 | 0.0 | 0.0 | 0.00 | 0.00 | 0.00 | 94 | 996.3 |
| 20260905043045 | 63 | 258 | 0.0 | 0.0 | 0.00 | 0.00 | 0.00 | 94 | 996.4 |
| 20260905042552 | 63 | 260 | 0.0 | 0.0 | 0.00 | 0.00 | 0.00 | 94 | 996.4 |
| 20260905042103 | 63 | 271 | 0.0 | 0.0 | 0.00 | 0.00 | 0.00 | 94 | 996.5 |
| 20260905041531 | 63 | 271 | 0.0 | 0.0 | 0.00 | 0.00 | 0.00 | 94 | 996.5 |
| 20260905041100 | 63 | 271 | 0.0 | 0.0 | 0.00 | 0.00 | 0.00 | 94 | 996.5 |
| 20260905040608 | 63 | 271 | 0.0 | 0.0 | 0.00 | 0.00 | 0.00 | 94 | 996.6 |
| 20260905040026 | 63 | 267 | 0.0 | 0.0 | 0.00 | 0.00 | 0.00 | 93 | 996.6 |
| 20260905035535 | 63 | 267 | 0.0 | 0.0 | 0.00 | 0.00 | 0.00 | 93 | 996.6 |
| 20260905035040 | 63 | 267 | 0.0 | 0.0 | 0.00 | 0.00 | 0.00 | 93 | 996.5 |
| 20260905034521 | 63 | 267 | 0.0 | 0.0 | 0.00 | 0.00 | 0.00 | 93 | 996.5 |
| 20260905034030 | 63 | 267 | 0.0 | 0.0 | 0.00 | 0.00 | 0.00 | 92 | 996.7 |
| 20260905033543 | 63 | 267 | 0.0 | 0.0 | 0.00 | 0.00 | 0.00 | 92 | 996.6 |
| 20260905033038 | 64 | 267 | 0.0 | 0.0 | 0.00 | 0.00 | 0.00 | 92 | 996.5 |
| 20260905032546 | 64 | 267 | 0.0 | 0.0 | 0.00 | 0.00 | 0.00 | 91 | 996.5 |
| 20260905032053 | 64 | 267 | 0.0 | 0.0 | 0.00 | 0.00 | 0.00 | 91 | 996.7 |
| 20260905031522 | 64 | 267 | 0.0 | 0.0 | 0.00 | 0.00 | 0.00 | 90 | 996.5 |
| 20260905031022 | 65 | 267 | 0.0 | 0.0 | 0.00 | 0.00 | 0.00 | 90 | 996.5 |
| 20260905030534 | 65 | 267 | 0.0 | 0.0 | 0.00 | 0.00 | 0.00 | 90 | 996.4 |
| 20260905030042 | 65 | 267 | 0.0 | 0.0 | 0.00 | 0.00 | 0.00 | 88 | 996.5 |
| 20260905025523 | 65 | 267 | 0.0 | 0.0 | 0.00 | 0.00 | 0.00 | 88 | 996.4 |
| 20260905025031 | 66 | 267 | 0.0 | 0.0 | 0.00 | 0.00 | 0.00 | 88 | 996.5 |
| 20260905024541 | 66 | 267 | 0.0 | 0.0 | 0.00 | 0.00 | 0.00 | 87 | 996.4 |
| 20260905024033 | 66 | 267 | 0.0 | 0.0 | 0.00 | 0.00 | 0.00 | 88 | 996.7 |
| 20260905023545 | 66 | 267 | 0.0 | 0.0 | 0.00 | 0.00 | 0.00 | 87 | 996.6 |
| 20260905023023 | 66 | 267 | 0.0 | 0.0 | 0.00 | 0.00 | 0.00 | 88 | 996.5 |
| 20260905022532 | 67 | 267 | 0.0 | 0.0 | 0.00 | 0.00 | 0.00 | 88 | 996.5 |
| 20260905022033 | 67 | 267 | 0.0 | 0.0 | 0.00 | 0.00 | 0.00 | 87 | 996.5 |
| 20260905021522 | 67 | 267 | 0.0 | 0.0 | 0.00 | 0.00 | 0.00 | 87 | 996.6 |
| 20260905021032 | 67 | 267 | 0.0 | 0.0 | 0.00 | 0.00 | 0.00 | 85 | 996.6 |
| 20260905020534 | 67 | 267 | 0.0 | 0.0 | 0.00 | 0.00 | 0.00 | 85 | 996.7 |
| 20260905020040 | 67 | 267 | 0.0 | 0.0 | 0.00 | 0.00 | 0.00 | 85 | 996.8 |
| 20260905015520 | 67 | 267 | 0.0 | 1.0 | 0.00 | 0.00 | 0.00 | 85 | 996.7 |
| 20260905015029 | 67 | 267 | 0.0 | 1.0 | 0.00 | 0.00 | 0.00 | 85 | 996.7 |
| 20260905014539 | 67 | 300 | 0.0 | 1.0 | 0.00 | 0.00 | 0.00 | 86 | 996.6 |
| 20260905014048 | 67 | 54 | 0.0 | 0.0 | 0.00 | 0.00 | 0.00 | 85 | 996.6 |
| 20260905013602 | 68 | 54 | 0.0 | 1.0 | 0.00 | 0.00 | 0.00 | 85 | 996.6 |
| 20260905013039 | 68 | 54 | 0.0 | 1.0 | 0.00 | 0.00 | 0.00 | 83 | 996.6 |
| 20260905012528 | 68 | 85 | 0.0 | 1.0 | 0.00 | 0.00 | 0.00 | 83 | 996.6 |
| 20260905012031 | 68 | 85 | 0.0 | 1.0 | 0.00 | 0.00 | 0.00 | 83 | 996.6 |
| 20260905011532 | 68 | 82 | 0.0 | 1.0 | 0.00 | 0.00 | 0.00 | 81 | 996.5 |
| 20260905011021 | 68 | 262 | 0.0 | 1.0 | 0.00 | 0.00 | 0.00 | 81 | 996.5 |
| 20260905010532 | 68 | 266 | 0.0 | 0.0 | 0.00 | 0.00 | 0.00 | 81 | 996.5 |
| 20260905005612 | 68 | 266 | 0.0 | 0.0 | 0.00 | 0.00 | 0.00 | 81 | 996.5 |
| 20260905005056 | 68 | 266 | 0.0 | 1.0 | 0.00 | 0.00 | 0.00 | 81 | 996.5 |
| 20260905004606 | 68 | 266 | 0.0 | 1.0 | 0.00 | 0.00 | 0.00 | 81 | 996.3 |
| 20260905004025 | 68 | 266 | 0.0 | 2.0 | 0.00 | 0.00 | 0.00 | 82 | 996.3 |
| 20260905003535 | 68 | 208 | 0.0 | 1.0 | 0.00 | 0.00 | 0.00 | 81 | 996.4 |
| 20260905003043 | 68 | 212 | 0.0 | 1.0 | 0.00 | 0.00 | 0.00 | 82 | 996.3 |
| 20260905002523 | 68 | 100 | 0.0 | 1.0 | 0.00 | 0.00 | 0.00 | 82 | 996.3 |
| 20260905002033 | 68 | 267 | 0.0 | 1.0 | 0.00 | 0.00 | 0.00 | 83 | 996.3 |
| 20260905001530 | 67 | 267 | 0.0 | 1.0 | 0.00 | 0.00 | 0.00 | 84 | 996.3 |
| 20260905001038 | 67 | 109 | 0.0 | 0.0 | 0.00 | 0.00 | 0.00 | 86 | 996.3 |
| 20260905000530 | 67 | 109 | 0.0 | 0.0 | 0.00 | 0.00 | 0.00 | 87 | 996.3 |
| 20260905000026 | 67 | 109 | 0.0 | 0.0 | 0.00 | 0.00 | 0.00 | 87 | 996.2 |
| 20260904235535 | 67 | 109 | 0.0 | 0.0 | 0.00 | 0.00 | 0.00 | 88 | 996.2 |
| 20260904235045 | 68 | 109 | 0.0 | 0.0 | 0.00 | 0.00 | 0.00 | 87 | 996.1 |
| 20260904234526 | 68 | 109 | 0.0 | 0.0 | 0.00 | 0.00 | 0.00 | 87 | 996.1 |
| 20260904234035 | 68 | 109 | 0.0 | 0.0 | 0.00 | 0.00 | 0.00 | 87 | 996.0 |
| 20260904233547 | 68 | 109 | 0.0 | 0.0 | 0.00 | 0.00 | 0.00 | 85 | 996.0 |
| 20260904233023 | 68 | 109 | 0.0 | 0.0 | 0.00 | 0.00 | 0.00 | 85 | 995.9 |
| 20260904232552 | 69 | 109 | 0.0 | 0.0 | 0.00 | 0.00 | 0.00 | 84 | 995.8 |
| 20260904232059 | 69 | 109 | 0.0 | 0.0 | 0.00 | 0.00 | 0.00 | 84 | 995.8 |
| 20260904231547 | 69 | 109 | 0.0 | 0.0 | 0.00 | 0.00 | 0.00 | 83 | 995.8 |
| 20260904231049 | 69 | 109 | 0.0 | 0.0 | 0.00 | 0.00 | 0.00 | 83 | 995.9 |
| 20260904230559 | 69 | 109 | 0.0 | 0.0 | 0.00 | 0.00 | 0.00 | 82 | 995.8 |
| 20260904230026 | 70 | 109 | 0.0 | 0.0 | 0.00 | 0.00 | 0.00 | 81 | 995.8 |
| 20260904225525 | 70 | 109 | 0.0 | 0.0 | 0.00 | 0.00 | 0.00 | 81 | 995.8 |
| 20260904225035 | 71 | 109 | 0.0 | 0.0 | 0.00 | 0.00 | 0.00 | 82 | 995.7 |
| 20260904224543 | 71 | 109 | 0.0 | 0.0 | 0.00 | 0.00 | 0.00 | 82 | 995.7 |
| 20260904224032 | 71 | 109 | 0.0 | 0.0 | 0.00 | 0.00 | 0.00 | 79 | 995.7 |
| 20260904223534 | 72 | 109 | 0.0 | 0.0 | 0.00 | 0.00 | 0.00 | 78 | 995.7 |
| 20260904223022 | 72 | 109 | 0.0 | 0.0 | 0.00 | 0.00 | 0.00 | 78 | 995.7 |
| 20260904222532 | 72 | 109 | 0.0 | 0.0 | 0.00 | 0.00 | 0.00 | 78 | 995.6 |
| 20260904222032 | 72 | 109 | 0.0 | 0.0 | 0.00 | 0.00 | 0.00 | 78 | 995.5 |
| 20260904221520 | 73 | 109 | 0.0 | 0.0 | 0.00 | 0.00 | 0.00 | 78 | 995.6 |
| 20260904221027 | 73 | 109 | 0.0 | 0.0 | 0.00 | 0.00 | 0.00 | 77 | 995.6 |
| 20260904220553 | 73 | 109 | 0.0 | 0.0 | 0.00 | 0.00 | 0.00 | 78 | 995.6 |
| 20260904220058 | 74 | 109 | 0.0 | 0.0 | 0.00 | 0.00 | 0.00 | 80 | 995.6 |
| 20260904215527 | 74 | 109 | 0.0 | 0.0 | 0.00 | 0.00 | 0.00 | 79 | 995.5 |
| 20260904215027 | 75 | 109 | 0.0 | 0.0 | 0.00 | 0.00 | 0.00 | 81 | 995.5 |
| 20260904214538 | 75 | 109 | 0.0 | 0.0 | 0.00 | 0.00 | 0.00 | 82 | 995.5 |
| 20260904214027 | 75 | 109 | 0.0 | 0.0 | 0.00 | 0.00 | 0.00 | 81 | 995.4 |
| 20260904213530 | 75 | 109 | 0.0 | 0.0 | 0.00 | 0.00 | 0.00 | 79 | 995.4 |
| 20260904213036 | 75 | 109 | 0.0 | 0.0 | 0.00 | 0.00 | 0.00 | 78 | 995.4 |
| 20260904212546 | 76 | 109 | 0.0 | 0.0 | 0.00 | 0.00 | 0.00 | 78 | 995.4 |
| 20260904212026 | 76 | 109 | 0.0 | 0.0 | 0.00 | 0.00 | 0.00 | 75 | 995.5 |
| 20260904211536 | 77 | 109 | 0.0 | 0.0 | 0.00 | 0.00 | 0.00 | 76 | 995.4 |
| 20260904211046 | 77 | 109 | 0.0 | 0.0 | 0.00 | 0.00 | 0.00 | 72 | 995.6 |
| 20260904210528 | 77 | 109 | 0.0 | 0.0 | 0.00 | 0.00 | 0.00 | 70 | 995.7 |
| 20260904210055 | 78 | 109 | 0.0 | 0.0 | 0.00 | 0.00 | 0.00 | 70 | 995.7 |
| 20260904205558 | 78 | 109 | 0.0 | 0.0 | 0.00 | 0.00 | 0.00 | 71 | 995.7 |
| 20260904205028 | 78 | 109 | 0.0 | 1.0 | 0.00 | 0.00 | 0.00 | 71 | 995.7 |
| 20260904204528 | 79 | 109 | 0.0 | 1.0 | 0.00 | 0.00 | 0.00 | 65 | 995.7 |
| 20260904204038 | 80 | 210 | 0.0 | 2.0 | 0.00 | 0.00 | 0.00 | 65 | 995.7 |
| 20260904203526 | 81 | 278 | 0.0 | 2.0 | 0.00 | 0.00 | 0.00 | 64 | 995.6 |
| 20260904203025 | 81 | 237 | 0.0 | 3.0 | 0.00 | 0.00 | 0.00 | 61 | 995.6 |
| 20260904202534 | 82 | 249 | 0.0 | 1.0 | 0.00 | 0.00 | 0.00 | 60 | 995.6 |
| 20260904202024 | 83 | 249 | 0.0 | 1.0 | 0.00 | 0.00 | 0.00 | 59 | 995.6 |
| 20260904201551 | 84 | 108 | 0.0 | 1.0 | 0.00 | 0.00 | 0.00 | 58 | 995.6 |
| 20260904201102 | 84 | 231 | 0.0 | 1.0 | 0.00 | 0.00 | 0.00 | 59 | 995.6 |
| 20260904200523 | 83 | 231 | 0.0 | 2.0 | 0.00 | 0.00 | 0.00 | 57 | 995.6 |
| 20260904200031 | 83 | 94 | 0.0 | 4.0 | 0.00 | 0.00 | 0.00 | 57 | 995.6 |
| 20260904195541 | 83 | 303 | 1.0 | 4.0 | 0.00 | 0.00 | 0.00 | 59 | 995.6 |
| 20260904195021 | 83 | 48 | 0.0 | 3.0 | 0.00 | 0.00 | 0.00 | 58 | 995.6 |
| 20260904194530 | 83 | 117 | 0.0 | 2.0 | 0.00 | 0.00 | 0.00 | 57 | 995.6 |
| 20260904194027 | 83 | 121 | 0.0 | 3.0 | 0.00 | 0.00 | 0.00 | 58 | 995.6 |
| 20260904193537 | 83 | 127 | 0.0 | 3.0 | 0.00 | 0.00 | 0.00 | 59 | 995.5 |
| 20260904193024 | 82 | 246 | 0.0 | 3.0 | 0.00 | 0.00 | 0.00 | 60 | 995.5 |
| 20260904192524 | 81 | 261 | 1.0 | 2.0 | 0.00 | 0.00 | 0.00 | 65 | 995.6 |
| 20260904192032 | 80 | 128 | 0.0 | 1.0 | 0.00 | 0.00 | 0.00 | 69 | 995.8 |
| 20260904191542 | 79 | 128 | 0.0 | 1.0 | 0.00 | 0.00 | 0.00 | 68 | 995.9 |
| 20260904191049 | 79 | 128 | 0.0 | 1.0 | 0.00 | 0.00 | 0.00 | 71 | 996.0 |
| 20260904190527 | 79 | 128 | 0.0 | 1.0 | 0.00 | 0.00 | 0.00 | 67 | 996.0 |
| 20260904190035 | 80 | 128 | 0.0 | 0.0 | 0.00 | 0.00 | 0.00 | 70 | 995.9 |
| 20260904185544 | 80 | 128 | 0.0 | 1.0 | 0.00 | 0.00 | 0.00 | 71 | 995.9 |
| 20260904185024 | 80 | 128 | 0.0 | 1.0 | 0.00 | 0.00 | 0.00 | 69 | 996.0 |
| 20260904184533 | 80 | 128 | 0.0 | 1.0 | 0.00 | 0.00 | 0.00 | 66 | 996.0 |
| 20260904184043 | 80 | 128 | 0.0 | 1.0 | 0.00 | 0.00 | 0.00 | 68 | 996.1 |
| 20260904183525 | 79 | 128 | 0.0 | 1.0 | 0.00 | 0.00 | 0.00 | 69 | 996.2 |
| 20260904183048 | 79 | 128 | 0.0 | 1.0 | 0.00 | 0.00 | 0.00 | 69 | 996.2 |
| 20260904182551 | 79 | 128 | 0.0 | 1.0 | 0.00 | 0.00 | 0.00 | 70 | 996.2 |
| 20260904182039 | 80 | 97 | 0.0 | 0.0 | 0.00 | 0.00 | 0.00 | 65 | 996.2 |
| 20260904181549 | 80 | 91 | 0.0 | 0.0 | 0.00 | 0.00 | 0.00 | 67 | 996.2 |
| 20260904181029 | 81 | 91 | 0.0 | 3.0 | 0.00 | 0.00 | 0.00 | 60 | 996.2 |
| 20260904180537 | 81 | 91 | 1.0 | 3.0 | 0.00 | 0.00 | 0.00 | 58 | 996.3 |
| 20260904180045 | 80 | 217 | 0.0 | 1.0 | 0.00 | 0.00 | 0.00 | 63 | 996.2 |
| 20260904175524 | 80 | 228 | 0.0 | 3.0 | 0.00 | 0.00 | 0.00 | 62 | 996.3 |